Regional Weather Roundup
Issued by NWS

Home | Current Version | Previous Version | Text Only | Print | Product List | Glossary On
Versions: 1 2 3 4 5 6 7 8 9 10 11 12 13 14 15 16 17 18 19 20 21 22 23 24 25 26 27 28 29 30 31 32 33 34 35 36 37 38 39 40 41 42 43 44 45 46 47 48 49 50
000
ASUS43 KTOP 302108
RWRKS

WEATHER ROUNDUP FOR KANSAS
NATIONAL WEATHER SERVICE GOODLAND KS
400 PM CDT TUE JUN 30 2015

NOTE:  "FAIR" INDICATES FEW OR NO CLOUDS BELOW 12,000 FEET WITH NO
SIGNIFICANT WEATHER AND/OR OBSTRUCTIONS TO VISIBILITY.

KSZ001>006-013>018-027>032-041>047-302200-
NORTHWEST KANSAS

CITY           SKY/WX    TMP DP  RH WIND       PRES   REMARKS
GOODLAND       SUNNY     94  48  20 SW10      29.98F
HAYS           MOSUNNY  102  48  16 SW17      29.88F HX  99
HILL CITY      SUNNY    102  46  15 W10       29.87F HX  98
RUSSELL        PTSUNNY  101  53  20 SW17G24   29.86F HX  99
$$

KSZ061>065-074>080-084>089-302200-
SOUTHWEST KANSAS

CITY           SKY/WX    TMP DP  RH WIND       PRES   REMARKS
DODGE CITY     MOSUNNY   94  52  24 SW13G22   29.97F
ELKHART          N/A     96  50  21 W9          N/A
GARDEN CITY    SUNNY     95  53  24 S13G23    29.97F
GREAT BEND     PTSUNNY   97  54  23 SW7       29.90F
LIBERAL        SUNNY     93  54  26 S12       30.00F
PRATT          MOSUNNY  N/A N/A N/A W14G21    29.95S
$$

KSZ066>073-081>083-090>101-302200-
SOUTHEAST KANSAS

CITY           SKY/WX    TMP DP  RH WIND       PRES   REMARKS
CHANUTE        MOSUNNY   93  64  38 S7        29.91F
COFFEYVILLE    MOSUNNY   94  65  38 VRB5      29.91F HX  96
HUTCHINSON     PTSUNNY  100  54  21 SW8       29.89F HX  98
MEDICINE LODGE   N/A     99  54  22 SW10      29.91F HX  97
NEWTON         MOSUNNY   97  59  28 SW12G21   29.93F HX  96
PARSONS        MOSUNNY   91  71  51 SW5       29.93F HX  97
WICHITA INTL   MOSUNNY   99  58  25 SW9G17    29.89F HX  98
WICHITA JABRA  SUNNY     98  58  26 SW14      29.90F HX  97
WICHITA MCCONL SUNNY     98  60  28 SW9       29.90F HX  98
WINFIELD       SUNNY     99  59  26 SW9G23    29.91F HX  99
$$

KSZ007>012-019>026-033>040-048>060-102>105-302200-
NORTHEAST KANSAS

CITY           SKY/WX    TMP DP  RH WIND       PRES   REMARKS
CONCORDIA      CLOUDY    95  60  31 SW10      29.86F HX  95
EMPORIA        MOSUNNY   95  61  32 S9        29.90F HX  95
LAWRENCE       CLOUDY    90  66  45 E5        29.90F
MANHATTAN      PTSUNNY   98  59  27 SW9       29.85F HX  98
MARYSVILLE     MOSUNNY   90  68  48 SE10      29.86F
OLATHE IND     CLOUDY    88  64  44 CALM      29.93F
OLATHE EXE     CLOUDY    87  62  43 W3        29.92F
SALINA         PTSUNNY  100  56  23 SW10      29.86F HX  99
TOPEKA BILLARD PTSUNNY   91  65  41 E9        29.89F
TOPEKA FORBES  PTSUNNY   93  61  34 E9        29.90F
$$



USA.gov is the U.S. government's official web portal to all federal, state and local government web resources and services.